Location: *
(51.1248°S, 108.4023°W)
Time: 08:07:31
(UTC+00:00)

Envisat - Pass Details

Date: 02 October 2021
Orbit: 764 x 766 km, 98.2° (Epoch: 27 October)

Event Time Altitude Azimuth Distance (km) Brightness Sun altitude
Rises 11:43:33 0° 3° (N) 3,231 6.1 -9.3°
Reaches altitude 10° 11:45:53 10° 358° (N) 2,313 5.3 -8.9°
Maximum altitude 11:50:54 55° 280° (W) 928 3.1 -8.2°
Drops below altitude 10° 11:55:59 10° 202° (SSW) 2,344 5.5 -7.4°
Sets 11:58:23 0° 197° (SSW) 3,278 6.3 -7.1°
